Theta_e
353 358 363 362 359 359 358 359 341 339 335 319 322 326 331 341 340 342 342 343 345 345 344 345 345 345 347 348 348 350 351 353 353 346 346 356 356 354 355 355 355 354 355 353 353 355 354 354 355 354 353 355 356 357 357 357 357 356 353 353 352 350 351 349 347 348 347 346 344 344 343 343 343 344 345 345 345 346 347 347 348 349 350 349 347 346 345 347 348 348 348 348 348 347 344 343 345
359 363 364 360 358 359 355 353 334 326 326 316 321 329 332 339 339 340 342 344 345 345 344 344 343 345 345 346 346 350 351 351 353 353 353 355 355 356 355 356 356 355 355 353 355 357 355 354 354 356 355 355 357 358 358 357 357 355 354 354 353 351 350 349 349 348 349 347 346 344 343 343 343 344 345 345 345 347 347 348 348 349 349 348 347 347 346 347 347 347 348 349 349 348 346 346 346
358 360 359 359 359 359 357 347 330 320 319 316 322 332 335 338 341 342 343 343 345 344 345 344 343 345 347 348 348 351 352 350 351 353 353 356 355 355 354 355 357 356 354 354 354 355 356 355 354 355 355 355 357 357 357 356 356 355 354 355 354 353 352 350 350 350 349 349 348 345 344 345 345 345 345 346 346 349 350 350 351 350 349 347 347 347 348 348 347 348 349 350 349 348 347 349 348
356 361 358 361 359 357 353 340 331 320 317 318 321 334 340 339 342 342 343 344 343 343 345 345 346 345 346 349 348 350 351 349 352 353 354 356 356 355 354 355 356 356 354 354 354 354 356 355 353 353 355 356 357 358 357 356 356 356 354 355 355 354 353 353 351 350 349 349 349 347 347 347 347 347 346 347 348 350 352 351 351 350 349 349 349 349 350 349 346 348 349 349 349 349 348 349 349
357 362 357 359 358 354 344 335 334 324 320 323 325 338 342 340 344 343 343 343 340 341 342 345 346 346 346 347 347 349 349 349 352 354 356 356 357 356 355 354 354 356 355 355 355 355 356 355 354 355 356 356 357 357 356 356 356 356 356 356 356 355 354 353 352 351 350 350 350 348 348 349 348 348 348 348 349 350 351 350 349 348 349 348 348 349 349 347 346 347 347 348 349 349 348 348 349
359 360 357 359 357 351 338 329 327 324 329 336 332 340 345 342 345 343 342 340 341 340 340 341 344 347 349 348 347 348 348 350 352 354 357 357 356 356 354 355 354 355 355 356 356 356 355 355 355 356 357 357 356 356 355 355 356 356 356 356 356 355 354 353 352 351 350 349 350 349 349 350 350 349 349 349 349 349 349 349 349 348 347 346 347 347 346 346 347 346 346 348 348 348 349 349 349
356 356 355 355 350 347 336 323 323 326 334 340 337 342 344 342 343 341 341 339 340 337 337 340 342 344 347 349 347 348 349 351 352 353 356 355 356 356 355 355 354 355 353 355 357 356 354 354 356 356 357 357 356 356 356 356 356 357 356 355 355 354 354 353 351 349 348 348 348 348 349 349 350 350 349 350 348 347 348 349 350 348 347 344 345 345 345 345 346 345 346 348 349 349 349 349 349
354 355 351 349 345 340 333 326 329 333 336 340 340 343 343 343 342 340 339 339 340 340 340 339 340 343 344 346 347 349 351 351 353 354 355 356 356 356 355 355 354 355 354 355 356 356 354 354 355 355 355 355 356 356 355 355 355 356 354 354 354 353 352 351 350 349 349 347 348 348 348 348 350 350 347 348 349 348 348 349 351 350 347 345 344 345 344 345 345 348 350 351 352 352 350 349 348
354 354 348 343 338 334 330 328 331 336 339 340 341 343 344 342 340 339 339 340 339 340 340 341 342 344 345 346 348 349 352 353 353 354 354 354 357 356 355 355 354 355 355 356 356 356 356 354 354 352 353 354 354 355 356 355 354 355 353 353 353 352 351 350 351 350 350 349 348 348 349 349 348 349 346 349 350 349 349 348 348 346 345 344 343 343 343 344 345 348 349 351 351 352 352 351 350
351 349 348 339 333 327 322 327 331 337 339 340 342 341 341 339 338 338 340 341 341 342 342 341 341 344 345 347 347 348 351 352 353 353 353 354 354 355 354 354 355 355 354 355 356 357 356 354 353 352 353 352 353 354 356 355 354 355 354 354 354 353 352 352 352 351 350 350 349 349 349 348 348 347 348 349 349 348 347 344 343 342 341 342 342 341 340 341 343 344 344 345 346 349 351 351 351
352 343 344 334 325 320 319 325 332 339 341 341 342 340 340 339 339 339 341 342 340 341 341 341 342 344 347 348 347 348 350 351 353 352 352 353 353 353 353 353 354 354 354 356 356 358 357 354 353 352 352 351 352 353 354 356 355 356 355 355 354 354 354 353 352 351 350 350 349 348 349 349 348 347 347 348 349 348 347 344 341 341 341 340 340 339 339 339 340 340 341 344 343 345 347 348 350
351 339 337 331 323 324 326 328 332 341 343 342 342 340 340 339 340 340 341 341 339 342 341 342 345 346 349 349 347 348 349 350 352 352 352 353 353 353 352 353 353 354 354 355 356 357 357 355 354 352 352 351 352 353 355 356 355 355 355 355 354 354 353 353 352 351 351 351 349 348 349 349 347 346 344 344 345 345 343 342 340 340 339 338 338 339 340 339 339 339 341 343 342 344 344 345 347
347 339 333 329 329 333 332 331 336 342 340 343 343 340 340 340 341 342 341 341 341 344 342 343 343 345 348 349 347 346 348 350 351 353 353 353 353 353 352 353 352 353 354 355 356 356 356 356 356 354 352 352 353 354 354 355 355 355 355 354 354 353 352 352 351 350 350 349 348 346 346 346 345 344 343 342 342 342 341 339 339 340 339 339 340 339 340 339 339 341 342 343 343 343 345 345 346
341 340 333 331 335 337 333 332 336 335 334 343 343 342 342 340 343 344 345 343 341 341 341 343 343 345 348 348 348 346 347 348 350 351 353 352 352 353 352 353 352 353 354 355 356 357 357 356 356 355 353 354 354 355 354 354 355 354 354 353 352 351 351 351 350 348 347 348 346 344 344 344 343 341 341 340 340 342 340 338 340 343 344 344 343 341 341 340 340 343 345 345 343 343 344 344 344
341 339 335 333 331 330 332 334 333 332 333 343 343 343 343 342 344 344 345 343 342 341 343 345 344 345 345 347 348 347 348 349 350 351 352 353 351 351 353 354 353 353 354 355 356 357 357 356 356 355 355 357 355 355 355 353 354 354 353 351 351 350 350 350 350 348 347 347 346 345 344 343 341 339 338 338 339 341 340 341 342 344 347 347 342 342 342 340 342 344 345 345 344 343 343 343 344
339 339 336 330 325 324 329 334 333 332 336 343 343 342 345 344 344 343 344 344 343 345 347 344 343 346 344 346 348 347 349 349 349 350 353 353 353 352 352 354 354 356 356 355 357 358 358 357 357 356 357 358 357 357 355 354 351 351 352 350 351 350 349 349 349 348 348 347 346 345 343 344 345 344 342 342 345 344 342 346 349 347 348 346 343 342 343 343 343 344 345 346 345 344 343 343 343
337 339 333 324 323 323 328 335 333 333 339 343 343 343 345 345 344 343 345 345 346 348 348 344 344 345 344 346 347 348 350 350 350 350 353 353 353 353 352 354 354 356 356 356 357 358 358 358 358 359 360 358 359 359 357 356 351 349 350 349 350 349 348 348 347 347 348 348 347 346 345 347 351 351 349 348 350 349 346 348 351 349 346 343 344 343 344 345 344 344 346 346 346 345 344 343 342
336 338 330 323 325 327 330 335 335 338 342 342 342 344 345 346 346 343 346 349 349 349 348 348 347 345 347 349 348 348 349 349 351 350 352 353 353 352 353 353 354 355 356 357 357 358 359 359 360 359 360 360 361 360 359 359 352 351 354 352 350 350 349 348 349 350 351 353 351 350 350 351 352 352 352 351 352 352 350 350 349 348 345 344 344 344 344 345 345 345 346 346 346 345 344 343 345
337 335 329 325 331 331 333 336 336 339 340 341 342 342 344 345 345 344 348 351 350 350 350 349 350 348 348 349 349 349 348 349 350 351 351 351 351 352 352 352 353 354 355 356 357 358 359 358 359 358 358 360 360 358 359 359 355 354 357 357 354 353 353 351 354 354 355 356 353 353 354 352 352 353 353 354 352 351 352 352 351 348 346 345 345 344 344 345 345 345 346 345 345 345 346 346 349
333 333 329 330 334 333 336 336 338 338 338 341 341 341 342 342 343 343 347 348 348 351 351 350 350 349 347 347 349 348 349 350 350 350 350 350 351 351 351 352 353 353 354 355 356 357 357 356 357 357 358 359 358 356 357 359 357 356 358 359 358 356 356 355 355 354 354 356 354 354 353 352 354 355 354 354 352 352 352 351 351 351 349 348 347 346 348 349 349 347 347 348 348 350 350 350 351
333 332 332 333 334 334 337 337 338 338 337 340 339 341 342 340 341 343 345 347 347 349 351 350 350 349 346 346 347 349 349 350 350 349 351 350 349 348 349 351 351 352 353 352 353 356 356 355 357 358 358 358 357 356 356 357 357 357 358 359 358 358 357 355 355 354 356 359 355 352 352 354 355 354 353 353 353 353 353 351 352 353 352 352 351 350 351 353 353 352 350 352 352 352 352 351 350
333 333 334 335 335 335 336 337 338 338 339 340 340 342 341 342 344 343 344 348 349 350 348 349 348 347 345 345 347 349 350 349 350 350 350 351 350 348 347 348 350 351 352 350 350 354 355 355 356 358 359 357 357 358 357 355 356 358 357 358 358 358 358 356 356 356 357 360 357 352 352 353 354 353 353 354 353 353 353 353 352 351 352 352 351 351 350 350 352 352 351 351 352 351 352 351 350
333 333 334 336 335 337 337 336 338 338 337 339 338 341 341 344 346 346 348 349 351 349 348 346 347 346 346 348 347 347 348 348 350 349 350 350 350 349 347 347 349 350 352 351 350 352 354 355 354 356 357 356 357 359 358 356 357 358 357 357 357 356 357 356 356 356 356 358 358 356 354 353 352 352 353 354 353 352 352 353 352 351 351 350 350 350 349 348 350 351 351 351 350 351 351 351 351
333 334 335 335 335 337 337 337 338 338 338 339 339 339 342 345 347 347 349 350 349 347 347 345 347 348 347 347 347 345 347 348 349 349 349 349 349 349 348 348 349 349 351 350 351 352 353 354 355 355 357 357 358 358 358 357 357 358 356 357 357 356 356 355 354 355 355 357 358 358 357 354 353 351 352 354 353 352 352 353 353 351 350 350 351 351 350 349 350 350 352 353 352 352 351 350 351
334 334 336 336 336 338 338 338 337 337 338 338 339 341 342 344 345 347 349 349 349 348 346 345 346 347 348 346 346 347 349 349 350 349 348 349 348 348 347 348 349 349 349 350 351 352 352 352 354 355 357 359 359 358 358 357 357 357 357 357 358 357 356 355 354 355 355 355 357 359 357 355 354 352 351 352 351 353 354 353 353 352 351 349 350 350 349 351 350 349 350 352 353 353 351 350 348
333 335 336 336 335 337 337 338 337 338 338 337 340 343 344 342 343 347 349 349 348 348 346 347 346 346 347 347 347 350 349 350 350 349 349 349 348 347 348 348 349 350 349 351 351 352 354 352 354 355 356 359 359 358 356 356 356 357 357 356 358 357 357 357 356 356 356 355 355 357 358 356 355 353 352 351 351 353 353 352 352 352 351 349 348 348 348 349 349 349 349 350 351 352 352 351 348
334 335 336 336 337 337 338 338 338 339 337 338 340 340 342 341 343 347 348 349 348 348 347 347 347 347 347 347 349 353 351 350 350 350 350 349 348 348 349 348 348 349 349 351 351 351 354 352 353 355 357 359 359 358 358 356 356 356 356 356 357 358 358 358 357 356 355 355 354 356 359 358 357 354 353 352 352 352 352 351 352 352 350 349 348 347 347 347 348 348 350 350 351 351 352 350 347
334 335 335 337 336 337 339 340 339 339 338 338 339 341 341 341 343 346 348 348 347 347 348 348 347 348 349 348 348 351 352 352 351 351 350 350 350 349 349 349 348 349 350 351 351 351 353 353 354 355 356 358 358 357 358 357 356 356 355 355 355 357 358 358 357 356 355 356 355 355 358 358 357 355 354 356 355 354 353 351 351 350 349 347 348 348 347 347 348 348 349 352 353 350 349 349 349
335 336 336 337 340 339 339 340 339 339 338 338 338 337 338 342 344 346 346 346 348 349 348 349 349 349 349 349 349 351 352 352 353 352 351 350 349 349 349 349 349 349 349 350 351 352 352 353 353 355 356 357 358 357 357 356 355 355 354 352 352 353 354 355 355 355 355 355 355 356 357 357 356 355 354 355 355 354 353 352 351 350 347 346 347 347 347 348 349 349 347 350 353 351 349 348 350
334 336 337 338 337 337 340 339 340 341 338 340 339 329 331 342 344 345 345 343 347 350 351 350 349 350 349 350 350 351 353 355 356 354 353 351 350 350 350 350 350 349 350 350 352 352 352 352 352 353 354 355 357 357 356 355 354 354 353 352 352 351 350 350 351 352 353 354 353 355 357 356 355 354 355 355 354 354 354 355 353 352 351 349 347 346 347 348 349 348 346 347 349 350 350 349 349
336 335 335 337 328 328 341 340 340 343 339 342 340 324 329 344 343 344 345 342 345 349 351 351 350 351 349 351 352 353 355 357 357 356 354 354 353 353 352 353 352 353 354 352 353 354 353 354 353 353 354 355 356 356 355 356 355 354 354 353 353 352 351 350 349 350 351 352 353 353 356 358 356 355 356 356 355 355 355 355 355 355 354 353 350 349 348 348 348 347 347 347 347 348 350 350 349
338 328 324 332 326 327 341 340 340 343 338 342 340 326 331 344 341 344 345 343 346 346 348 350 351 353 351 353 355 353 356 358 357 356 356 355 355 357 357 357 357 358 358 356 356 356 354 355 356 355 355 355 355 356 356 356 357 356 355 355 354 354 353 352 351 350 351 351 352 352 355 359 359 358 357 354 353 355 356 355 356 356 356 354 352 350 349 348 348 347 347 349 348 348 349 350 348
335 326 317 323 325 326 336 339 340 341 339 340 339 332 335 342 341 342 344 344 344 345 346 347 348 351 353 353 353 354 355 356 357 357 357 357 358 358 360 360 359 360 361 360 359 358 358 357 357 357 356 356 356 357 358 358 358 357 357 357 356 356 355 354 353 353 352 352 352 352 355 358 361 361 358 353 352 355 357 357 357 357 356 355 354 352 350 350 350 349 348 350 350 350 349 348 347
324 326 321 323 327 327 328 335 340 338 340 339 339 340 340 342 340 341 343 343 343 343 345 344 345 347 350 351 350 354 352 352 356 359 358 358 360 359 360 362 362 362 361 361 362 361 361 360 358 358 357 357 357 358 358 358 358 358 358 357 357 357 357 356 355 355 355 354 353 353 355 356 357 359 357 354 355 356 356 355 355 356 354 355 355 354 353 352 351 351 350 351 351 351 350 350 349
318 320 320 320 325 328 327 333 338 339 339 340 340 341 341 341 341 340 342 344 343 341 342 344 345 345 347 349 349 353 351 350 354 357 356 357 359 360 359 360 361 363 362 362 363 363 363 362 360 359 359 358 357 358 358 358 358 357 357 357 358 358 358 359 358 358 357 356 355 355 355 355 355 356 355 354 355 354 353 354 354 354 353 353 354 354 353 353 353 353 352 352 352 353 353 353 351
324 323 323 319 320 325 332 336 337 339 339 339 341 339 342 343 342 340 339 343 343 341 342 342 344 346 346 348 348 350 350 349 351 354 354 356 358 359 358 358 360 363 361 361 363 363 364 363 362 361 361 360 359 360 359 358 358 358 358 358 359 360 360 359 359 358 358 356 356 356 356 357 354 353 353 353 352 352 352 353 354 354 354 353 353 352 352 353 354 353 352 351 352 352 352 352 350
330 327 325 324 321 322 333 338 337 339 337 336 341 340 343 343 342 341 339 341 344 343 342 342 343 344 345 348 349 349 350 348 350 352 354 355 357 358 359 358 359 361 361 362 363 363 364 364 364 364 364 363 361 361 361 361 360 358 359 359 360 360 359 358 358 357 356 355 356 357 357 357 355 353 352 351 350 350 349 349 351 352 353 355 355 354 352 353 354 353 351 350 350 348 347 350 350
330 327 322 322 322 324 333 338 336 339 336 335 342 342 343 345 342 342 338 338 343 343 344 343 343 344 344 347 348 348 349 349 351 353 354 356 355 356 358 359 359 361 362 363 363 364 366 367 366 365 365 364 363 363 363 363 363 360 359 359 358 357 356 355 354 353 352 351 351 353 354 352 353 353 352 351 351 350 350 350 350 350 351 354 356 354 351 350 351 352 350 349 349 347 346 347 348
328 326 322 318 322 326 331 337 336 337 334 333 340 340 341 346 342 342 341 338 340 341 344 344 344 344 346 346 348 348 349 350 351 352 353 353 353 354 356 357 358 360 363 364 365 368 369 365 362 362 362 361 362 363 363 363 363 360 358 357 355 352 351 349 349 348 347 346 345 346 346 347 349 350 350 351 350 350 351 351 350 350 351 353 355 353 350 348 350 352 350 348 348 347 347 346 347
328 325 319 316 323 324 321 330 336 338 334 336 341 338 340 348 345 343 342 339 340 339 340 343 345 345 345 344 346 347 348 351 351 350 351 351 351 353 355 357 358 358 362 364 365 368 366 361 360 360 359 358 358 360 360 359 358 356 355 353 350 348 346 344 345 345 344 343 341 341 341 343 346 346 345 346 346 345 347 348 348 349 350 351 351 351 350 349 349 349 348 347 346 346 346 345 347
325 327 321 319 325 324 323 329 336 335 335 337 339 330 333 345 348 347 345 341 340 339 339 342 343 344 345 344 344 346 347 350 351 348 348 349 351 353 355 357 357 357 360 361 362 363 361 359 360 359 357 356 356 357 355 353 351 350 350 349 347 346 346 344 343 343 340 338 337 336 338 342 344 344 344 343 343 343 344 346 347 347 349 349 350 351 350 350 350 348 346 346 346 347 347 347 349
320 326 327 326 327 327 327 332 331 323 323 332 334 321 323 342 350 350 348 345 343 341 341 342 344 347 345 345 345 345 346 348 349 347 346 348 350 354 356 356 356 356 357 359 358 358 358 359 359 356 354 353 351 350 347 345 344 344 344 344 343 342 342 341 341 340 339 338 337 338 340 342 343 343 343 343 343 343 345 346 347 346 347 348 349 350 349 348 348 347 345 345 347 350 350 349 349
315 323 330 329 330 329 326 329 324 315 317 329 334 322 318 332 344 349 347 345 347 346 346 345 346 349 347 347 347 346 346 347 348 347 347 349 351 354 356 357 356 354 355 357 356 358 359 357 354 349 348 346 344 344 342 343 343 343 342 342 340 339 338 339 341 341 341 341 341 341 341 342 342 342 343 343 342 343 344 345 346 346 346 347 348 349 348 347 346 345 345 345 348 351 351 350 349
317 327 330 329 328 328 326 327 321 318 321 327 332 326 318 319 333 348 346 343 348 349 348 346 346 348 348 348 349 347 346 348 347 348 347 350 353 354 356 358 355 353 354 356 357 359 357 351 347 345 345 344 343 344 345 344 344 342 341 341 341 340 340 341 340 340 341 343 342 341 341 340 341 341 342 342 342 342 343 344 346 346 347 348 349 348 348 346 344 345 346 346 349 350 349 349 348
324 333 332 328 329 328 328 325 321 322 320 315 323 328 319 315 326 343 345 341 344 349 347 346 346 348 348 347 347 347 347 348 349 349 350 352 353 355 357 358 354 353 356 358 358 357 352 346 345 345 345 345 347 347 346 344 342 341 342 342 342 341 341 341 340 340 341 341 341 340 339 339 339 340 340 340 341 342 343 345 345 346 347 348 348 347 346 346 346 346 346 346 348 349 349 349 347
329 333 331 330 329 328 330 326 320 320 317 312 317 323 319 316 320 329 336 335 341 349 348 346 345 345 347 346 345 346 346 348 349 348 350 352 353 354 356 358 354 355 359 359 357 352 346 345 347 347 346 347 347 346 345 345 343 342 344 344 342 342 342 343 343 342 342 342 340 339 340 339 339 339 339 339 340 341 341 343 344 344 345 345 346 346 346 346 347 346 346 345 345 346 347 347 345
331 332 329 329 329 330 330 327 322 317 315 315 317 319 320 317 318 323 331 335 341 346 345 346 346 344 348 346 344 345 347 349 350 349 351 353 353 353 355 357 357 358 360 357 352 348 346 347 348 348 348 347 346 346 346 345 345 344 344 343 342 343 342 342 342 342 342 342 341 341 340 340 340 339 339 339 339 340 340 341 342 342 344 344 345 347 347 345 344 344 345 345 344 344 344 343 343
331 332 328 322 321 324 322 320 319 315 313 316 318 320 318 314 318 326 335 340 340 340 339 344 347 347 348 348 346 345 348 350 351 350 351 352 354 354 355 358 360 359 358 354 349 347 347 349 349 349 347 346 346 347 348 347 347 346 344 343 342 342 341 340 340 341 341 342 342 341 340 340 340 339 339 339 339 339 339 340 341 342 343 344 344 344 345 344 343 343 344 345 346 344 343 342 342
331 327 321 315 314 316 315 313 316 314 313 316 319 319 316 314 322 331 336 338 337 337 337 339 346 349 350 350 348 345 348 351 350 350 351 352 354 354 356 362 361 358 356 351 348 348 349 350 349 349 348 346 346 348 348 348 346 345 344 342 341 340 340 340 340 340 340 341 340 340 339 339 338 338 338 338 338 338 339 339 340 341 342 343 343 343 343 343 343 344 344 345 346 345 343 342 342
327 322 316 313 313 314 314 313 314 314 312 316 321 320 315 315 324 333 335 334 335 336 336 336 341 349 350 351 350 347 349 351 349 348 349 352 355 355 359 362 359 357 354 350 348 348 350 351 350 349 348 346 347 348 348 346 345 344 343 342 340 339 339 339 339 339 339 340 340 339 339 338 337 338 338 338 339 338 338 338 339 339 341 343 345 345 344 344 343 344 343 345 345 344 344 343 343
327 328 324 316 313 314 313 312 312 313 312 314 319 319 313 313 323 335 336 334 335 334 336 338 337 341 349 351 351 348 348 349 346 345 346 351 356 358 361 361 358 356 353 349 347 348 350 351 350 349 347 348 349 348 346 344 344 344 343 341 340 339 339 338 338 338 339 339 339 339 339 339 339 339 339 339 339 338 338 338 338 338 339 342 344 345 343 342 341 341 341 343 343 342 342 342 342
326 330 324 316 317 317 313 312 313 312 312 314 315 317 318 323 332 340 337 334 335 334 336 339 337 338 343 350 353 349 348 350 347 344 344 350 358 361 360 359 357 355 350 347 349 350 351 351 349 348 349 349 349 347 345 343 343 343 343 340 338 338 338 338 338 338 338 338 337 337 338 339 339 339 339 339 339 339 339 338 338 337 338 340 341 341 341 339 338 338 339 341 342 341 339 339 340
323 322 317 319 327 324 313 311 313 312 311 313 313 314 320 325 330 335 337 335 336 337 337 336 340 344 343 348 353 350 347 352 351 347 346 351 358 359 358 357 355 353 350 349 350 351 351 351 348 347 349 350 348 346 345 344 344 343 342 341 339 338 338 338 337 338 337 336 336 336 338 338 338 338 338 338 338 339 338 338 338 337 338 339 340 339 340 340 340 340 339 339 341 340 337 337 340
323 316 319 326 329 326 318 312 313 313 312 313 311 312 315 315 320 332 337 336 335 337 337 335 340 347 347 346 352 353 350 351 354 353 350 350 356 358 356 355 354 352 350 350 352 352 351 349 347 347 349 350 348 345 344 344 344 344 342 341 340 339 339 338 337 337 337 336 336 336 337 338 338 337 337 338 338 338 338 338 337 338 339 338 338 339 339 340 341 340 340 339 339 338 337 338 340
326 323 327 327 317 316 316 313 313 314 313 314 312 312 314 312 318 331 335 334 335 337 338 336 337 344 348 347 349 353 354 352 354 355 351 350 355 356 353 352 352 350 349 351 354 353 350 347 348 347 348 348 346 344 344 344 345 344 342 341 340 340 339 338 338 337 337 336 336 337 337 337 337 336 337 337 337 338 337 337 337 337 336 336 336 337 337 337 338 338 338 338 337 338 339 339 339
328 328 329 328 319 316 316 315 314 313 313 314 312 312 313 317 326 333 335 335 336 335 337 337 335 338 345 348 349 353 355 354 353 354 351 348 353 356 351 348 347 348 350 352 354 350 346 345 347 347 346 346 346 344 345 345 345 343 343 341 340 339 339 339 338 338 337 336 336 336 337 336 336 336 335 336 336 336 337 337 336 335 335 335 335 336 336 337 338 339 340 339 337 338 339 339 338
323 320 320 321 321 321 319 318 315 314 313 312 313 312 313 323 334 335 334 335 334 335 337 338 336 336 341 348 351 352 356 355 354 355 351 348 353 353 348 346 345 347 349 351 350 345 341 343 345 344 344 345 345 345 346 345 344 344 343 343 341 340 340 339 339 338 337 336 336 336 336 336 336 335 335 335 335 336 336 337 337 337 337 337 337 337 337 338 338 338 339 339 337 338 339 338 338
324 321 319 319 320 317 315 315 315 314 312 311 313 312 314 326 336 335 334 334 332 335 336 335 338 336 338 346 351 352 357 355 355 354 350 349 354 352 347 345 343 348 350 348 345 342 339 342 343 342 341 341 342 344 345 345 344 343 343 342 340 340 339 339 338 337 336 335 335 335 334 335 336 335 335 334 334 334 335 336 337 338 338 338 338 338 337 337 337 337 338 337 336 337 337 337 337
Wind_Speed
7 7 8 8 10 11 7 6 1 4 5 10 10 10 10 10 11 11 13 11 9 10 9 10 10 7 9 12 13 13 10 8 7 5 7 9 12 15 17 18 20 22 22 21 21 21 21 21 21 22 21 20 18 19 21 21 20 20 21 22 21 21 21 21 21 20 20 19 18 18 17 17 17 16 16 15 14 14 13 13 13 12 12 12 11 10 10 9 9 9 9 9 9 9 9 8 8
10 9 9 9 11 9 3 3 3 7 7 11 11 10 10 11 13 13 13 12 11 11 10 10 11 11 13 14 14 15 14 14 13 11 11 16 17 15 17 19 18 20 20 20 20 19 20 20 20 21 21 19 18 18 20 21 20 20 21 21 20 20 19 20 19 19 18 17 17 16 16 15 15 15 15 14 13 13 12 12 12 12 12 11 10 10 9 9 9 9 8 8 9 8 8 7 7
11 10 8 9 9 7 3 2 4 8 9 11 10 11 13 13 15 15 15 14 13 12 11 9 10 12 11 12 14 15 13 15 17 14 12 17 15 14 18 19 18 19 19 20 19 18 19 19 19 20 20 19 18 18 20 20 20 19 20 20 19 18 18 18 18 18 17 16 15 15 15 14 13 13 14 13 13 12 12 12 12 12 11 11 10 9 9 9 9 8 8 7 7 7 7 6 6
11 10 7 6 5 5 2 3 6 8 10 10 10 12 14 14 15 15 14 13 11 11 11 10 10 11 13 15 14 13 13 13 16 13 10 14 14 16 19 18 18 17 18 20 19 19 19 18 20 21 20 19 19 19 20 19 19 18 18 18 18 17 17 17 17 16 15 14 14 14 14 13 13 13 12 12 13 12 12 12 12 12 11 11 11 10 10 9 9 8 7 7 6 6 6 6 5
11 11 7 5 3 3 0 6 7 8 10 9 9 12 14 15 14 14 13 12 11 11 11 10 10 11 13 14 11 9 12 13 15 15 13 15 17 18 18 17 17 16 17 18 18 19 20 19 20 21 21 20 19 20 20 19 18 18 18 17 17 16 16 16 16 15 14 14 13 13 13 13 13 12 12 12 12 12 12 12 11 12 11 11 11 10 10 9 8 7 6 6 5 5 5 5 5
11 10 9 7 3 4 2 8 9 10 11 11 11 12 15 14 14 14 13 12 11 12 12 11 12 13 12 12 11 9 12 12 13 15 16 18 19 18 17 16 16 16 17 17 16 17 19 20 19 19 21 21 20 20 20 20 19 18 17 17 17 16 16 15 15 15 14 14 13 13 12 12 12 12 12 12 12 12 12 11 11 11 11 11 10 10 9 8 7 6 5 5 4 4 4 4 4
10 8 5 4 2 1 5 11 10 10 12 13 13 13 14 13 13 13 12 12 12 12 13 13 13 13 11 11 11 12 15 14 14 17 19 21 20 18 16 16 16 16 17 17 17 17 18 20 19 18 20 21 20 19 19 19 19 18 17 17 17 16 15 15 14 14 13 13 13 12 12 12 12 12 11 11 11 11 11 10 10 10 10 10 9 8 7 6 5 4 4 4 3 3 3 3 3
9 4 1 2 1 4 8 11 11 11 13 14 14 14 13 12 10 11 12 12 11 11 12 14 13 12 12 12 11 12 16 18 20 22 22 21 19 18 16 16 17 16 17 18 18 18 17 17 17 18 19 20 20 19 18 18 18 18 17 17 16 15 15 15 14 13 13 13 12 12 12 12 12 11 11 11 11 11 10 10 10 9 9 8 8 6 5 4 4 4 3 3 3 3 2 2 1
7 4 3 2 3 7 9 10 12 12 13 14 13 12 10 11 10 12 13 12 11 11 11 13 13 12 14 15 12 12 17 21 23 24 22 21 19 18 17 16 17 17 17 18 18 17 16 16 17 18 19 19 20 19 18 18 18 18 17 16 16 15 15 14 14 13 13 12 12 12 12 11 11 11 11 11 11 11 10 10 10 9 8 7 6 4 3 3 3 3 3 3 3 2 2 1 1
4 4 5 1 5 6 8 9 11 12 13 13 12 11 10 10 11 13 13 12 11 11 12 13 14 15 15 15 12 12 16 20 22 21 21 20 19 17 17 17 17 18 18 18 18 17 16 16 17 18 19 18 19 18 17 18 17 17 16 15 15 15 14 14 13 13 13 13 12 12 12 11 11 10 10 10 10 10 10 9 9 8 6 5 4 3 3 3 3 3 3 3 2 2 1 0 1
4 5 3 2 6 5 8 9 10 12 13 12 11 11 10 11 11 12 12 12 12 13 13 13 15 15 15 13 10 13 19 19 19 20 19 19 18 18 17 17 17 18 19 19 18 17 16 16 16 17 17 17 17 18 17 16 16 15 15 15 15 14 14 13 13 13 13 12 12 11 11 11 10 10 10 9 9 9 9 8 8 7 5 4 4 3 3 3 3 3 3 3 3 3 2 1 2
5 2 1 3 6 5 7 9 11 12 12 11 11 10 10 10 11 11 12 13 12 12 12 12 12 12 13 12 9 14 19 18 18 18 17 17 16 17 16 17 17 18 18 18 17 17 16 15 15 15 15 15 16 17 16 15 15 14 15 14 14 14 13 13 12 12 12 11 11 10 10 9 9 9 9 8 8 8 8 8 7 6 5 4 4 4 4 5 4 3 3 3 4 4 4 3 3
6 3 2 4 5 6 7 9 10 11 10 10 10 9 9 10 11 11 11 12 11 11 12 12 12 12 12 11 9 12 16 17 19 17 16 16 15 15 15 16 17 17 18 18 18 17 16 15 14 13 14 14 15 15 15 14 14 13 14 13 13 12 12 11 11 11 11 10 10 9 9 8 8 8 8 7 7 7 6 6 6 5 5 5 5 4 5 6 5 4 5 4 4 5 5 6 5
5 4 1 4 5 6 6 7 8 9 9 9 9 8 10 10 10 9 9 11 12 13 11 11 12 13 12 11 10 9 13 18 18 17 16 14 15 15 14 15 16 16 17 17 18 17 16 15 15 14 14 13 13 14 13 13 13 12 12 12 11 11 11 10 10 10 10 9 9 8 8 7 7 7 6 6 6 5 5 5 5 5 5 5 5 5 6 7 6 6 5 5 5 6 6 7 7
5 5 1 3 6 5 3 5 8 8 8 10 9 8 11 10 10 9 9 11 13 11 8 10 9 9 11 10 9 11 15 19 18 17 16 13 14 16 15 14 15 14 15 15 16 16 15 15 15 15 15 14 13 13 13 13 13 12 12 11 11 10 10 10 10 9 9 9 8 7 7 6 6 6 5 5 4 4 5 4 5 5 6 7 7 7 8 8 8 8 7 6 6 6 7 8 8
5 6 2 2 4 6 4 5 7 7 8 11 10 10 11 10 9 9 9 9 11 8 5 8 5 5 12 11 12 18 20 20 18 17 16 14 14 15 15 14 14 13 13 14 13 13 14 14 15 14 14 15 13 12 13 13 13 13 12 11 10 10 10 9 9 9 8 8 8 7 6 6 5 5 5 5 5 6 5 5 7 6 7 9 8 8 9 9 9 10 9 8 7 7 8 8 9
5 7 1 3 3 6 6 5 5 8 10 11 10 9 10 10 9 9 10 9 9 7 5 7 6 8 15 14 19 23 22 20 19 18 16 14 13 13 14 13 13 12 11 12 12 12 12 13 13 13 12 13 12 11 12 12 12 12 11 10 10 9 9 8 8 8 8 7 7 7 7 6 5 6 7 6 6 8 6 7 9 8 9 10 10 10 11 10 11 11 10 9 9 9 8 8 8
6 3 2 3 4 7 7 7 8 10 11 10 10 9 9 10 10 9 9 9 8 9 9 9 10 13 17 21 24 22 21 20 19 19 16 14 12 11 12 12 11 11 11 11 11 11 12 12 12 12 12 12 11 10 11 11 11 11 10 10 9 9 9 8 8 8 8 7 8 8 8 7 7 8 8 6 8 9 8 8 10 10 12 12 11 12 12 12 12 12 11 11 10 10 9 8 7
6 1 3 4 7 8 8 9 10 11 10 10 10 9 9 9 10 8 7 9 8 10 11 12 15 16 19 23 24 21 20 19 18 18 16 15 13 11 11 11 10 10 11 11 11 11 11 12 12 11 12 11 10 10 10 10 11 11 10 9 9 9 9 9 9 9 9 9 9 9 8 8 8 8 7 7 10 9 8 10 11 12 13 13 13 13 13 14 13 13 12 11 11 11 9 8 7
4 2 3 6 8 9 10 10 11 12 10 11 10 9 9 8 7 6 7 10 8 9 11 13 15 17 18 20 21 21 19 18 17 16 15 14 14 12 11 11 10 10 10 10 11 11 11 11 11 11 11 11 10 9 8 9 10 10 9 9 8 9 10 10 10 10 10 9 9 9 8 8 7 9 8 8 10 9 8 10 11 12 12 13 14 13 12 13 13 13 12 10 10 9 8 7 6
2 3 4 8 8 8 10 11 12 11 10 10 10 9 9 7 5 6 9 9 8 9 10 13 16 18 19 18 19 20 18 17 16 15 15 13 13 13 11 10 10 10 10 10 10 11 11 11 11 11 12 11 10 8 8 8 8 8 7 7 7 7 8 8 8 8 8 8 9 9 7 7 6 8 9 7 8 7 7 8 10 12 10 11 13 12 10 11 11 11 11 10 8 7 8 8 7
2 8 6 8 9 9 9 11 12 10 10 10 9 9 9 8 6 4 5 6 6 8 11 14 17 18 19 18 18 18 17 16 15 15 14 13 13 12 12 11 10 10 9 10 10 11 11 11 11 12 11 11 10 8 7 7 7 7 6 5 5 5 5 5 6 6 6 6 8 7 7 7 7 7 7 7 7 7 7 7 9 11 10 10 11 12 11 10 11 10 10 9 8 7 8 8 7
1 7 5 8 11 10 10 10 10 10 9 9 9 9 9 10 10 9 8 9 9 11 14 17 17 18 19 18 17 16 16 15 15 15 14 14 13 11 12 12 11 11 9 9 10 11 12 11 11 11 10 11 10 8 7 7 7 6 6 5 5 5 5 5 6 6 5 6 7 7 8 8 7 7 7 7 8 8 9 8 8 9 9 10 10 11 12 11 10 10 9 8 9 8 8 8 7
4 7 7 10 12 11 10 10 9 10 10 9 9 10 10 11 11 10 11 12 12 14 16 17 18 19 19 16 15 15 15 14 14 15 13 13 13 12 12 11 10 10 9 9 9 10 11 11 11 11 10 10 10 9 8 7 6 6 6 5 5 5 5 5 6 6 5 6 7 7 8 8 7 8 7 8 8 8 9 9 8 9 9 9 10 10 11 11 11 10 9 8 8 9 8 8 8
6 7 9 10 11 10 10 10 11 11 9 9 10 11 12 13 12 11 12 13 13 15 16 17 17 17 16 15 15 14 13 14 14 15 14 13 13 13 12 12 10 10 10 9 9 9 11 12 12 11 10 10 10 10 8 7 6 5 6 5 5 5 6 6 6 6 6 7 7 8 8 8 8 8 8 8 8 8 8 9 9 10 9 9 10 10 10 10 11 11 10 9 9 9 9 9 9
8 7 9 10 12 10 10 11 11 11 8 9 12 13 14 13 12 11 11 12 14 15 16 16 16 16 15 14 14 13 12 13 13 14 13 12 13 12 12 12 11 10 10 10 9 9 10 11 12 11 11 10 10 9 8 7 6 5 6 6 6 6 6 6 7 7 7 7 7 7 8 8 8 8 9 8 9 8 9 10 10 10 10 10 11 12 13 11 11 12 11 11 9 9 9 9 9
10 9 11 11 12 9 10 12 11 11 10 10 12 13 13 11 10 9 11 12 13 15 15 15 14 14 14 13 13 12 12 12 13 13 12 12 12 12 11 11 11 11 10 10 10 10 10 11 12 12 11 10 10 9 8 7 7 6 6 6 6 7 7 7 7 8 8 8 7 6 6 7 8 8 9 9 9 9 9 10 11 12 12 11 11 12 13 13 13 13 12 12 12 10 10 11 11
11 11 12 11 11 9 10 11 9 9 10 11 12 13 11 9 10 10 11 11 12 14 14 14 14 13 13 13 13 10 11 13 13 13 13 12 12 12 12 11 11 11 11 12 11 10 11 12 11 12 11 11 10 9 8 7 7 7 6 6 7 7 7 7 8 8 8 8 8 6 6 8 8 8 9 8 8 8 9 12 14 15 15 13 12 12 12 12 13 15 15 14 13 13 13 13 12
11 11 11 12 11 9 9 9 8 7 8 11 11 11 11 9 11 13 13 12 11 12 13 13 12 12 12 13 11 9 10 12 12 12 12 12 12 13 13 12 12 11 12 11 11 10 11 11 11 12 12 12 11 10 8 8 7 7 7 7 7 7 7 8 8 8 8 8 8 8 8 10 10 10 9 9 9 9 10 14 16 17 17 17 15 14 15 13 13 15 17 17 14 13 14 14 12
11 11 9 10 10 8 9 7 8 8 8 8 6 4 9 10 12 14 13 13 12 11 12 12 11 11 11 11 10 10 11 11 11 12 12 12 11 12 12 12 12 10 10 11 11 10 10 9 10 11 12 12 11 10 9 8 7 7 7 7 7 7 8 9 9 9 9 9 9 9 10 12 12 11 10 11 11 10 10 12 14 16 16 16 17 17 16 15 14 15 16 18 17 14 15 14 13
11 11 8 7 7 8 11 9 9 9 6 5 4 2 6 10 12 13 12 14 14 11 11 11 11 11 10 11 10 10 11 11 12 13 13 13 12 11 11 10 10 8 7 10 11 10 9 8 8 8 10 11 11 10 10 9 8 7 7 7 7 7 8 9 9 8 8 9 9 10 10 11 13 12 11 12 11 10 11 12 13 15 14 16 18 18 18 19 19 17 15 17 18 18 16 14 14
9 9 8 8 5 8 12 10 10 9 6 7 5 3 6 10 12 12 11 13 14 12 12 11 10 11 10 10 10 10 11 11 12 13 13 13 11 11 10 10 10 8 6 8 9 9 9 8 7 7 8 9 9 10 9 9 8 7 7 7 7 7 7 8 9 9 9 9 10 11 10 10 11 11 11 14 15 13 13 14 14 14 16 18 19 19 20 21 20 19 18 18 19 22 19 16 15
7 7 7 8 6 7 11 10 9 9 9 8 5 4 7 10 12 13 12 13 14 13 13 13 11 11 10 9 9 10 10 10 11 12 13 12 12 12 11 11 11 10 8 8 9 9 9 8 8 7 7 8 8 9 9 8 8 8 7 7 8 7 8 9 9 10 10 10 11 10 8 8 10 10 14 18 18 16 14 14 14 14 16 16 17 19 21 22 21 20 21 20 20 23 24 21 18
8 8 6 8 9 7 9 11 10 7 7 7 4 5 8 11 12 13 13 12 12 12 13 14 12 11 11 9 9 10 10 10 10 12 14 12 12 12 12 11 11 11 9 9 9 9 8 8 8 7 7 7 8 8 8 8 8 8 8 8 8 8 9 9 9 10 10 11 11 11 9 12 15 15 18 20 18 17 15 15 16 16 17 16 16 18 19 22 22 21 21 21 20 22 24 23 20
8 9 7 9 9 7 7 8 10 9 6 7 4 6 10 12 12 13 13 12 10 11 11 12 13 12 12 10 10 11 10 10 10 13 15 14 13 13 12 12 11 11 10 10 9 9 8 8 8 7 7 7 7 7 7 7 7 8 8 8 8 9 9 9 10 10 11 12 12 11 10 14 20 19 19 20 19 19 16 15 15 16 17 18 19 18 17 19 20 20 21 21 21 20 20 20 20
10 10 9 9 8 7 8 8 11 11 8 6 5 6 11 12 12 13 13 12 9 10 11 10 11 12 11 10 10 11 11 11 13 15 15 15 13 13 12 12 12 11 10 10 10 9 9 8 8 8 7 7 6 6 7 7 7 8 7 8 8 8 9 9 9 10 11 12 11 11 10 13 20 21 19 19 18 17 15 14 14 14 14 16 19 18 17 18 19 22 22 22 24 22 21 20 20
10 11 9 11 10 9 11 10 11 12 8 6 6 6 11 12 12 13 13 12 11 11 11 10 11 11 10 11 10 12 11 11 14 15 14 14 13 13 12 11 11 10 10 10 10 10 9 8 8 8 7 6 6 6 7 6 6 7 7 7 8 8 8 8 8 8 9 9 8 8 8 10 15 16 15 15 15 15 15 15 15 15 14 14 15 16 19 19 20 22 20 19 24 24 22 19 17
6 10 9 10 9 9 13 12 11 11 8 6 7 7 10 12 12 13 13 12 12 11 11 11 12 11 10 11 12 11 10 10 13 13 13 14 14 13 12 11 11 11 11 11 11 10 9 8 7 7 6 6 6 5 5 5 5 5 6 6 7 7 7 7 7 7 7 8 7 7 8 10 11 12 12 13 15 15 13 14 15 15 15 14 15 15 18 20 20 21 17 18 23 23 23 20 16
8 9 9 9 7 8 12 12 10 9 6 5 8 7 8 11 12 12 13 12 11 12 12 11 12 12 11 11 12 12 11 10 11 12 13 14 14 14 12 11 11 11 11 11 10 9 9 8 7 6 5 5 5 4 4 4 4 4 4 5 5 6 7 6 7 8 9 9 9 9 10 10 9 9 10 11 13 14 13 14 15 15 15 14 14 15 17 19 20 21 18 17 20 19 20 21 19
9 8 8 8 8 9 8 9 11 10 7 6 8 8 7 10 11 11 12 12 11 13 14 13 12 11 12 12 11 12 12 11 11 12 13 14 14 14 13 11 11 11 11 11 10 9 8 7 6 5 4 4 4 4 3 3 2 2 3 4 4 6 6 6 7 7 8 8 8 9 9 6 6 8 9 10 12 14 14 16 16 15 16 16 16 16 16 16 18 20 18 17 19 18 17 19 20
9 11 9 8 10 9 5 8 11 10 9 8 7 7 7 9 10 10 10 11 11 13 14 14 13 12 12 12 12 12 13 12 12 12 12 13 14 13 13 12 11 11 10 10 10 9 7 6 6 5 4 3 3 4 2 1 1 2 2 3 4 4 5 5 6 6 6 7 8 9 7 6 7 8 9 10 11 12 13 15 15 16 17 17 17 16 14 13 13 14 15 15 17 17 17 16 14
9 13 12 11 12 10 9 12 11 8 9 10 9 6 6 10 10 9 9 11 11 11 12 14 13 13 13 12 13 13 13 13 13 13 12 13 14 13 13 12 11 11 10 10 9 9 8 8 7 6 5 4 4 4 3 2 1 1 2 3 4 4 5 5 5 6 7 8 8 9 8 7 8 8 8 9 10 11 12 13 14 15 16 15 15 15 14 14 14 14 15 15 12 12 14 14 14
7 12 13 13 11 7 9 13 11 6 7 11 13 8 5 8 10 11 11 12 13 11 13 14 13 13 13 12 13 13 13 13 12 13 13 13 14 14 14 14 13 12 11 10 10 10 10 9 8 7 6 6 5 5 4 2 2 1 1 3 4 5 6 5 6 7 7 7 8 8 8 8 8 8 9 9 10 11 12 13 13 13 13 13 13 13 13 14 15 14 14 14 10 9 10 12 15
3 7 15 12 11 9 9 8 9 8 9 10 14 10 8 6 9 14 15 14 15 14 15 15 15 16 15 14 14 14 14 13 12 13 13 13 15 15 15 15 14 12 12 12 12 12 11 10 10 8 7 7 6 5 4 2 1 1 2 3 4 5 6 6 6 6 6 6 7 8 8 8 8 8 9 10 10 10 11 12 11 11 10 10 10 10 11 13 13 12 13 13 10 10 11 13 15
2 2 8 11 9 11 11 8 6 10 11 7 9 8 8 6 7 12 15 14 15 16 16 16 17 18 18 17 16 16 15 14 13 13 13 14 15 16 16 15 14 14 14 13 13 13 12 12 11 10 8 7 6 5 4 3 2 1 2 2 4 5 5 6 7 6 6 6 7 8 9 9 9 9 9 10 10 10 11 11 10 10 9 8 8 9 10 11 11 11 13 13 11 11 11 13 15
2 0 4 5 7 10 10 8 7 10 10 6 8 10 7 7 8 10 11 11 13 13 13 15 17 18 18 17 17 17 15 14 14 14 14 15 17 17 16 16 15 15 15 14 14 14 13 13 12 11 9 8 7 6 5 4 3 2 2 2 4 5 5 6 6 6 6 6 8 8 8 9 9 9 9 9 9 10 10 10 10 10 9 9 8 8 9 9 11 12 13 14 12 12 13 14 15
2 5 6 5 8 8 6 7 7 8 7 7 12 14 10 7 8 9 10 10 10 10 12 15 18 19 19 18 17 17 16 13 13 13 14 16 17 17 17 17 16 16 16 15 15 15 14 14 13 11 10 8 7 7 6 6 5 4 3 3 4 5 5 6 6 7 7 6 7 7 8 8 8 8 9 9 9 9 9 10 10 10 10 9 8 7 8 9 10 10 11 13 13 12 14 16 15
4 7 8 7 7 5 4 6 6 7 8 9 15 17 14 9 8 7 9 12 11 11 13 16 18 19 18 17 17 17 16 14 13 12 14 15 16 17 18 18 18 17 17 17 16 16 15 14 13 12 11 9 8 8 8 7 6 4 3 3 4 4 5 6 6 6 6 7 7 7 8 8 9 9 9 9 9 10 10 10 10 10 9 9 9 8 9 9 11 10 10 11 11 12 16 17 15
9 9 8 7 6 5 6 7 7 7 8 9 12 13 11 8 8 9 8 11 14 12 10 11 15 19 18 18 17 16 15 15 14 12 13 13 14 17 19 19 19 18 18 18 17 16 15 14 14 13 11 10 9 9 8 8 6 5 4 3 3 4 5 5 6 6 6 7 7 8 9 9 9 9 9 9 9 10 10 9 10 10 9 8 9 9 9 10 10 10 9 10 11 13 16 16 15
11 10 8 8 7 6 7 7 6 8 9 9 9 8 7 6 7 10 10 8 7 8 8 8 9 15 18 18 17 16 16 16 14 13 13 13 14 18 20 20 20 19 19 19 17 16 15 14 14 13 12 11 10 10 9 8 6 5 4 3 3 4 4 5 5 6 6 7 8 9 9 10 10 10 9 9 10 10 10 10 10 10 10 8 8 9 9 9 9 10 10 10 11 12 13 13 14
10 10 9 8 7 7 6 6 7 7 7 8 9 5 6 6 1 2 3 2 4 4 7 7 6 9 14 17 17 17 17 17 15 15 15 15 18 21 21 21 20 20 20 20 18 17 15 14 14 13 12 12 11 11 9 8 6 5 4 4 3 4 4 5 5 6 6 7 8 9 10 10 10 10 10 10 10 10 10 10 10 10 10 9 7 8 9 9 10 11 11 10 11 12 12 13 14
9 9 9 8 8 7 6 7 7 6 5 4 7 4 6 4 3 2 2 3 3 4 5 8 8 9 11 14 17 16 16 17 17 17 16 18 22 23 22 22 21 20 21 20 19 18 16 14 14 14 13 13 12 11 9 7 6 5 5 4 4 4 5 5 6 6 6 7 8 9 10 10 10 10 10 10 10 10 10 11 11 10 10 9 8 8 9 10 11 11 11 11 11 12 12 14 14
7 8 10 10 9 8 7 8 8 7 7 5 5 6 7 5 5 10 10 6 6 4 5 8 8 10 12 12 15 15 16 17 17 17 17 18 21 23 23 23 22 21 22 21 20 19 17 15 14 14 13 13 12 11 9 7 7 6 6 5 5 5 5 6 6 6 7 8 8 9 10 9 10 9 10 10 10 10 10 10 11 11 10 10 10 10 10 11 11 10 10 11 12 13 14 14 13
8 7 9 9 6 5 6 6 6 7 8 7 7 8 6 5 4 9 11 7 8 8 7 7 7 9 10 11 13 15 17 17 17 17 17 18 22 23 23 23 22 22 23 22 21 19 17 15 14 14 14 14 13 11 10 8 7 7 6 6 6 6 6 6 7 7 7 8 8 9 9 9 9 9 9 9 10 10 10 10 11 11 10 10 10 10 10 10 10 10 11 11 11 12 13 13 12
11 4 5 8 6 5 5 5 5 6 6 6 8 8 6 6 4 8 9 6 7 8 8 6 7 9 10 10 12 15 16 16 16 17 16 17 21 23 23 23 23 23 22 22 22 19 17 15 15 15 15 14 13 11 10 9 8 8 7 6 6 6 6 6 7 7 7 8 8 9 9 9 9 9 9 9 10 10 11 11 11 11 10 10 10 10 11 11 10 11 11 11 11 11 11 12 12
12 8 4 6 6 6 6 5 6 6 6 6 6 6 4 4 4 10 10 5 3 3 5 4 7 8 9 10 10 12 14 14 15 16 16 16 20 23 24 24 24 23 22 22 22 20 18 17 16 15 15 14 13 12 10 9 9 8 7 6 6 6 7 7 7 7 8 8 8 9 9 9 9 9 10 10 11 11 11 11 11 11 11 10 10 10 11 10 10 10 10 11 12 12 11 12 13
11 9 7 7 6 5 4 5 7 7 6 5 6 5 1 3 5 8 9 5 2 0 2 4 5 7 8 10 10 11 13 14 15 15 16 17 21 24 25 24 24 23 22 22 21 20 18 17 16 16 15 14 13 12 11 10 9 8 8 7 7 7 7 7 7 7 8 8 9 10 10 10 10 10 11 11 11 11 12 12 12 11 12 11 10 11 10 10 9 9 9 10 12 12 12 13 14
12 10 10 9 8 7 6 6 8 7 7 5 6 6 2 7 5 6 7 4 4 2 2 4 4 5 6 9 10 11 12 14 15 15 15 16 19 23 24 24 23 23 22 22 21 19 18 17 17 16 15 14 13 13 12 10 9 8 8 8 7 8 7 7 7 7 8 9 10 11 11 10 11 11 11 11 12 12 12 12 12 12 12 11 11 11 10 10 10 10 10 10 11 12 13 14 15
Wind_Direction
282 266 259 264 264 275 266 243 122 98 86 80 77 77 78 85 95 94 93 94 87 77 76 76 67 66 81 87 83 68 50 36 38 72 96 125 131 124 123 118 117 118 121 122 118 115 115 119 123 125 128 133 137 133 126 124 126 127 126 124 125 124 121 119 119 117 114 114 113 110 109 109 108 105 102 100 101 101 102 102 102 101 99 99 97 95 92 87 81 81 83 84 87 87 90 93 96
271 260 256 260 257 264 276 242 96 92 87 80 76 75 82 83 82 79 81 81 79 84 85 82 81 81 88 100 95 77 66 65 73 82 101 126 127 122 123 118 117 119 121 122 119 115 114 118 122 124 126 130 134 133 128 126 127 125 124 121 122 122 121 119 117 116 113 113 113 111 109 109 107 103 101 99 101 99 100 100 99 99 98 99 96 95 91 88 88 89 91 91 93 92 94 95 98
274 275 269 264 258 259 280 252 97 91 84 81 80 76 78 78 80 82 83 82 88 97 92 83 85 88 92 95 86 83 83 82 89 95 111 125 124 124 125 121 119 120 121 122 120 118 117 120 123 123 124 130 134 133 128 127 126 124 124 122 122 121 119 119 117 116 113 111 112 112 111 110 108 106 105 105 105 103 102 102 103 103 103 103 101 99 97 98 98 99 99 99 99 100 103 100 100
281 280 285 286 279 257 241 106 84 83 84 83 83 81 81 82 84 85 87 89 94 97 91 82 73 75 85 93 91 89 93 93 98 103 114 120 121 124 124 123 122 120 121 120 120 121 121 123 126 128 131 137 136 130 127 127 127 125 125 123 123 122 119 119 117 116 114 113 112 113 114 113 112 112 110 110 112 110 108 107 109 110 110 110 107 106 105 108 108 109 108 105 105 106 110 107 103
279 279 279 273 291 277 135 86 76 78 82 87 92 88 87 88 91 92 93 93 92 91 95 95 82 77 77 86 94 95 99 98 99 105 111 115 120 124 123 126 125 120 117 116 118 121 126 127 129 134 137 138 135 130 129 130 129 128 126 125 124 122 121 120 119 119 118 118 116 115 115 114 116 117 116 116 117 115 114 113 114 114 116 116 115 115 112 112 113 115 113 111 112 110 110 110 107
284 294 275 252 278 296 66 86 82 79 77 85 93 90 90 90 90 91 90 88 86 87 93 95 95 94 79 70 72 81 100 106 107 111 115 120 123 125 125 126 123 120 116 114 116 119 128 132 130 134 135 135 132 129 131 132 132 129 127 127 126 124 123 123 123 123 123 122 119 119 118 118 119 119 120 120 120 119 118 118 118 119 121 121 120 119 115 113 114 115 115 116 113 110 110 110 106
305 320 288 255 241 233 88 85 82 81 80 83 90 92 92 92 93 96 96 93 88 88 93 99 104 102 93 87 79 77 92 106 114 116 118 122 123 124 125 123 120 119 115 114 117 119 127 132 131 132 132 132 130 128 131 132 131 129 129 129 127 127 126 126 126 125 124 125 124 124 123 124 123 122 124 122 122 122 121 120 122 124 124 124 123 121 118 116 117 119 118 117 108 103 104 100 95
296 299 230 225 169 105 84 84 84 84 85 84 88 93 98 100 102 100 97 95 95 98 98 100 104 98 96 101 93 85 91 100 110 116 121 122 122 124 124 122 120 119 116 115 118 121 124 129 132 132 131 132 130 129 131 132 131 129 128 128 128 129 129 129 128 127 128 129 130 129 127 128 128 126 126 124 124 124 128 131 129 128 128 128 127 124 122 122 125 120 108 101 90 84 87 83 76
283 280 248 195 111 88 89 89 88 87 90 92 93 97 103 101 97 95 96 96 98 103 97 96 102 101 100 100 97 97 97 104 113 119 123 123 124 125 123 123 123 121 119 117 119 120 122 128 133 133 133 134 132 130 132 134 132 131 129 129 131 132 133 133 133 134 133 134 136 134 133 134 133 132 131 131 132 135 139 143 142 142 142 140 138 135 137 145 153 147 136 126 108 89 67 43 0
272 233 255 134 96 92 96 93 93 96 97 99 101 105 104 99 99 98 101 98 93 92 91 94 101 107 109 104 103 106 109 115 119 122 125 125 127 126 124 123 123 122 121 121 122 123 124 128 131 133 135 134 132 131 133 134 134 133 132 134 136 137 138 139 140 140 139 141 141 141 141 140 140 140 139 141 144 146 148 154 159 160 162 161 158 163 173 177 186 195 194 192 183 156 117 91 267
260 194 233 107 99 90 94 97 100 99 100 102 101 102 101 101 101 98 100 95 89 93 102 105 102 105 106 101 98 109 119 125 122 123 125 127 128 125 124 123 124 123 123 124 124 125 125 128 130 133 133 131 131 132 132 133 135 136 136 140 141 142 144 144 145 144 144 145 146 147 146 146 147 148 150 154 153 154 158 165 173 176 181 183 184 190 196 206 218 227 227 231 240 235 232 221 233
270 211 167 100 96 95 102 102 104 103 103 103 98 99 103 103 99 99 100 100 105 108 108 110 110 111 107 102 104 120 127 128 123 122 125 126 125 123 124 124 125 124 124 125 125 126 127 128 129 131 131 131 132 130 132 135 137 140 142 144 145 147 147 147 147 146 147 148 150 150 149 151 151 154 160 164 164 164 168 177 186 188 195 201 204 206 213 228 241 245 246 253 264 263 261 254 245
261 267 103 93 99 108 106 99 107 113 104 97 98 109 110 98 96 99 100 110 120 110 99 106 119 116 107 109 117 130 129 126 126 126 127 125 123 122 122 122 124 123 124 125 126 130 131 131 132 136 135 132 133 131 135 139 142 145 146 148 149 150 149 148 149 150 151 153 155 155 156 158 159 166 169 172 171 167 173 187 195 199 211 216 215 220 232 246 257 255 256 261 268 270 273 273 266
278 287 98 109 111 106 106 116 121 109 99 100 106 114 106 97 103 103 101 108 100 97 108 118 121 110 107 120 130 139 130 128 131 129 127 127 126 122 120 121 122 123 124 127 130 133 136 136 139 142 141 138 140 141 144 146 147 150 150 152 153 154 154 154 157 158 159 160 161 162 165 167 170 177 179 182 178 178 194 207 212 216 223 225 228 238 251 264 271 266 266 265 267 274 278 280 278
281 290 257 128 118 108 87 103 106 101 107 111 108 105 102 101 107 101 96 97 92 104 125 119 122 123 130 143 141 140 135 134 134 129 128 126 125 122 121 121 121 125 126 128 132 136 140 139 141 146 148 148 149 149 152 153 153 155 157 158 159 161 163 164 167 168 169 170 171 175 177 181 187 192 199 203 202 212 227 236 238 237 236 241 250 259 269 278 282 280 282 280 275 277 276 279 282
260 279 255 137 124 111 95 95 108 112 110 109 111 112 105 95 95 96 100 103 109 128 141 122 133 133 133 142 134 136 138 136 135 130 127 124 124 126 127 126 125 128 127 132 136 139 142 142 144 149 153 152 152 152 154 159 162 163 164 166 168 171 174 175 178 178 180 184 184 189 194 197 203 214 225 230 232 240 237 227 240 248 247 255 266 273 278 282 285 287 288 287 282 280 279 281 283
241 264 245 119 101 93 105 116 121 113 110 119 123 118 107 99 98 104 111 110 117 121 109 120 130 118 123 129 128 134 137 137 139 134 129 131 134 137 136 133 135 135 134 139 141 143 143 144 146 149 153 152 152 154 155 163 169 169 171 176 177 180 184 186 190 192 193 196 199 206 210 209 209 220 233 236 237 249 243 223 235 248 256 265 271 273 278 283 285 288 288 287 285 282 282 283 281
239 248 87 101 83 80 88 91 109 120 121 129 128 118 114 113 111 119 125 108 111 117 102 96 97 102 111 120 128 134 138 141 144 139 138 141 143 147 143 140 145 143 144 146 149 152 148 148 149 150 156 155 155 157 157 165 172 174 177 183 186 190 194 197 199 202 203 202 212 217 215 216 219 226 231 222 226 241 240 235 245 254 262 268 273 275 279 282 283 286 287 286 284 283 282 279 270
253 280 93 73 62 68 73 85 106 118 122 126 125 119 116 117 120 137 138 112 116 121 114 107 101 105 115 125 132 137 143 147 148 145 147 147 145 150 145 144 150 148 151 153 156 159 155 155 155 156 160 159 158 160 162 166 173 179 183 188 193 196 201 205 205 205 204 205 216 220 217 217 224 238 237 222 228 236 238 247 258 266 270 269 272 278 282 283 282 280 281 285 287 288 283 272 255
257 276 113 82 70 71 73 87 101 114 126 122 113 113 115 121 133 149 137 125 134 126 125 128 122 125 128 132 137 141 149 151 150 151 151 150 148 151 150 149 155 157 161 158 159 164 162 161 161 161 162 162 163 165 170 169 173 184 188 193 194 199 207 209 213 213 206 207 218 221 219 217 225 244 245 241 243 243 248 255 263 273 277 274 274 280 284 285 286 282 278 281 283 279 270 258 251
301 37 82 91 94 89 88 101 107 115 119 107 109 115 109 105 117 145 148 138 135 137 138 137 137 139 137 139 142 146 150 151 156 156 152 154 154 153 153 157 160 163 166 160 163 169 166 165 166 165 164 167 170 171 177 176 177 187 192 196 197 204 215 216 222 227 213 211 227 230 226 224 233 249 257 267 263 255 259 258 264 274 274 268 271 278 282 277 278 280 274 270 267 262 257 253 256
7 63 64 88 100 99 97 100 103 111 113 113 118 108 94 88 75 87 132 119 110 132 133 131 138 139 140 143 144 148 151 154 161 160 156 159 161 155 152 162 165 166 171 164 168 176 171 171 172 169 168 171 177 178 182 183 185 194 195 197 202 211 225 230 234 240 228 222 239 244 238 238 241 251 262 272 271 269 271 261 265 279 282 276 276 281 284 273 267 271 270 266 264 261 255 256 263
93 86 73 89 101 106 103 105 112 113 106 100 98 98 100 94 74 59 73 82 93 114 123 129 135 136 140 143 146 152 153 158 162 161 162 161 166 164 159 167 167 169 176 169 170 178 176 177 178 175 173 175 181 184 185 189 194 199 198 196 207 216 225 235 240 246 244 235 245 248 245 251 253 255 256 256 264 271 272 268 266 275 284 286 285 283 285 281 273 273 273 272 272 270 264 261 264
103 103 99 101 105 111 117 119 114 96 90 91 101 112 104 93 87 78 79 87 100 113 123 130 133 137 141 144 151 152 153 162 162 161 164 164 171 171 168 170 169 171 176 175 175 178 181 181 182 182 181 184 189 193 194 197 201 204 205 201 210 221 226 238 245 247 251 247 245 245 248 255 259 261 256 251 261 269 271 276 276 274 273 276 277 275 277 280 279 279 276 276 279 279 276 270 263
105 101 101 112 112 117 124 114 104 97 96 100 107 105 93 92 95 91 91 99 108 117 126 131 135 139 142 148 150 148 157 164 161 162 164 166 174 175 172 170 171 175 176 180 181 183 186 183 185 188 187 192 197 200 203 207 209 211 218 216 217 225 230 239 249 252 254 256 249 241 246 253 258 265 265 263 268 271 273 281 283 284 284 281 282 279 276 275 278 282 282 279 279 280 279 275 270
107 120 119 127 121 126 128 114 107 102 98 101 106 102 100 105 102 95 100 110 117 123 131 133 140 142 144 150 143 147 163 162 162 164 163 167 172 175 176 171 173 180 180 183 185 187 190 189 190 191 192 197 200 204 208 213 213 215 223 226 227 229 234 239 245 251 252 256 256 244 242 252 259 266 273 280 279 277 283 290 289 288 288 287 289 290 288 285 282 280 281 282 278 277 277 273 274
122 138 130 128 126 138 130 114 109 104 107 111 112 112 117 119 111 104 108 119 127 129 133 138 144 145 147 146 139 154 165 158 162 162 162 169 169 175 180 176 177 180 181 187 189 189 191 194 195 195 199 201 203 209 211 214 215 221 227 230 234 235 239 244 245 250 251 255 260 249 240 251 261 267 274 281 280 285 293 289 283 283 284 283 283 284 286 289 289 285 281 279 276 275 272 266 267
138 139 130 135 137 140 128 120 119 116 115 113 116 121 122 113 106 113 122 129 134 134 137 143 146 145 147 142 142 162 162 157 165 164 166 169 170 177 181 178 180 180 182 190 191 189 192 194 195 198 202 205 209 213 213 217 220 225 233 235 239 240 240 248 252 251 250 252 255 251 247 252 258 263 269 274 277 286 286 277 275 278 281 281 278 278 278 279 285 289 283 275 273 275 273 266 263
144 144 144 146 142 137 134 130 121 119 120 129 139 126 109 103 112 123 132 132 134 140 141 144 144 144 146 143 149 164 159 161 167 167 166 167 173 177 179 179 179 180 180 186 187 189 194 192 193 197 201 207 211 214 216 220 224 227 234 239 242 243 243 247 250 251 251 251 251 249 249 252 255 258 262 264 268 273 272 273 275 277 278 276 273 275 275 271 273 281 284 279 271 272 272 267 263
156 160 158 151 151 150 150 144 132 130 124 137 162 122 101 111 126 133 141 138 138 147 142 144 146 146 150 148 157 160 156 166 169 169 165 167 174 172 177 176 173 177 174 177 183 190 196 191 192 196 199 205 208 213 218 220 226 231 235 243 245 248 251 251 247 247 247 249 253 250 248 254 257 256 256 260 264 267 267 271 274 275 274 271 269 267 265 264 263 265 276 281 277 271 267 267 267
171 162 162 172 173 152 152 160 155 141 125 157 176 108 111 124 137 143 150 144 141 150 145 146 148 149 155 153 160 158 158 172 170 169 165 165 171 166 168 163 161 168 162 168 176 185 192 190 193 195 197 203 204 210 217 221 225 231 237 243 247 249 254 257 256 253 250 250 253 254 250 254 262 262 255 257 262 263 264 265 268 268 266 267 270 266 260 258 255 254 260 269 276 277 269 265 267
178 168 176 190 187 151 157 171 181 161 150 208 213 120 121 134 147 150 157 152 146 152 148 151 155 153 159 157 161 159 159 169 167 166 163 161 161 156 158 153 156 161 152 160 167 178 187 186 193 198 198 202 205 209 214 221 224 230 237 240 245 249 254 259 261 259 258 256 255 258 253 248 259 262 256 263 269 266 264 266 267 267 266 270 273 266 259 255 252 254 256 254 263 272 269 265 265
179 200 193 188 197 166 159 164 199 186 155 202 228 142 133 136 152 155 164 166 155 153 152 157 161 157 162 162 163 159 157 165 167 166 162 159 154 154 157 155 161 163 159 160 161 173 178 178 189 196 199 201 205 208 212 218 222 227 232 237 242 244 251 256 259 260 260 259 259 262 260 254 256 258 266 274 276 269 263 267 270 268 266 270 273 267 261 258 254 255 259 257 259 263 263 263 262
179 207 197 194 199 174 161 161 193 200 169 202 209 141 136 139 157 160 167 176 161 153 156 159 160 160 164 167 165 160 162 168 170 170 167 163 158 157 159 159 165 165 166 168 164 171 172 173 181 185 194 198 200 204 208 215 219 225 229 233 236 239 244 250 256 261 261 262 262 260 256 261 262 260 269 275 273 271 269 269 270 268 263 261 263 265 263 261 257 254 257 263 263 260 261 261 258
190 199 187 197 197 179 174 167 181 191 197 213 185 137 136 144 162 161 165 179 167 154 158 160 159 161 164 168 166 161 170 170 169 177 172 166 165 164 163 164 169 168 170 173 170 173 173 174 177 177 189 196 196 197 202 212 217 223 229 232 234 239 245 250 256 259 263 264 266 266 265 266 266 265 268 274 276 277 274 266 265 264 261 258 257 258 261 263 259 254 255 259 260 256 257 260 258
194 203 191 188 188 189 190 179 174 183 203 203 175 146 139 151 167 164 165 173 171 160 161 164 161 164 167 170 167 162 174 172 170 180 173 167 170 169 168 168 172 172 172 174 176 180 177 177 177 178 190 197 196 195 202 213 218 222 228 233 238 243 249 254 258 260 264 266 266 269 275 273 271 272 271 273 275 276 273 267 264 261 258 258 257 254 255 259 257 257 257 256 256 256 255 255 257
185 203 203 188 183 189 190 180 166 179 209 197 175 163 150 160 170 170 167 165 175 171 165 170 168 168 169 171 172 167 174 173 169 175 171 168 172 173 174 175 175 176 177 179 182 186 184 182 179 178 184 192 203 207 212 219 225 229 230 237 246 252 257 259 260 262 264 269 266 261 266 268 271 279 280 278 277 275 274 272 267 266 263 256 253 250 250 252 254 256 259 258 259 262 258 251 253
216 207 210 202 195 190 178 162 157 182 212 194 179 179 165 170 174 173 172 169 177 177 173 178 175 173 173 173 174 170 176 171 162 167 171 173 176 176 177 179 181 182 183 185 188 188 186 184 179 179 181 190 208 216 222 226 228 237 242 249 258 262 265 268 271 276 278 281 278 268 270 270 272 282 286 289 291 285 275 270 268 268 267 258 250 249 251 255 255 253 253 256 257 259 259 255 255
248 222 208 209 195 169 158 149 162 189 210 190 181 194 183 176 179 175 176 180 180 178 181 184 180 176 174 176 173 171 176 168 161 169 176 180 181 178 178 183 188 187 186 187 187 180 179 185 185 187 190 198 208 208 221 232 229 244 259 267 276 281 284 287 289 292 290 289 289 283 277 271 272 281 283 286 290 290 283 279 280 277 273 266 257 253 256 258 254 248 246 248 251 254 257 260 254
237 235 207 211 198 166 151 159 178 190 211 206 183 199 198 175 181 181 183 191 181 178 185 184 186 182 177 180 175 174 175 168 171 178 181 186 184 180 180 186 188 187 187 184 180 174 176 187 187 188 191 194 195 186 199 227 241 262 282 292 296 297 299 299 296 291 287 291 293 287 285 287 292 296 296 292 289 292 290 288 290 286 282 278 270 264 261 256 248 247 246 244 247 250 254 258 249
220 230 213 215 207 189 187 177 175 184 209 220 195 202 207 181 188 188 188 202 190 183 187 183 186 186 182 182 177 178 177 172 180 183 183 187 185 181 181 185 187 185 185 183 180 177 177 178 172 170 166 157 155 152 156 174 233 288 300 305 300 296 301 300 296 297 301 305 303 303 320 335 323 311 307 302 297 295 294 292 291 288 287 286 281 277 275 272 263 261 258 249 245 247 256 263 252
204 221 229 234 210 189 192 174 164 191 209 211 208 220 213 182 191 205 199 207 202 190 192 189 188 187 186 185 179 182 181 177 184 185 185 187 183 182 180 181 185 182 180 180 176 171 164 159 156 153 149 144 139 135 135 142 175 281 296 304 307 308 307 306 308 312 314 315 316 321 330 329 322 319 313 306 304 301 299 297 293 289 287 286 286 284 286 289 285 283 279 269 260 256 263 269 264
208 197 213 253 254 218 201 175 164 219 224 197 200 222 235 181 187 217 217 210 207 203 201 197 193 191 191 188 181 183 184 179 184 187 188 185 180 180 179 179 183 180 175 172 165 160 155 152 153 154 152 149 144 142 145 149 163 226 296 305 312 313 305 307 312 308 307 311 316 320 321 319 319 319 316 311 311 308 305 303 300 295 291 289 288 284 287 290 283 281 283 280 280 275 269 268 270
250 174 183 215 259 260 245 202 176 236 245 193 187 210 241 208 183 206 214 209 205 208 210 204 198 196 194 193 186 184 187 182 181 186 188 184 179 180 177 177 181 175 167 164 160 157 155 154 156 158 156 154 153 155 155 156 167 228 296 302 305 304 301 306 308 305 305 309 312 315 316 316 316 315 315 313 312 311 310 309 307 304 300 297 292 286 289 291 281 278 282 283 284 276 266 264 268
302 17 187 185 223 248 252 239 205 238 246 204 185 214 247 242 201 202 207 207 206 209 214 210 205 200 195 196 191 186 186 184 182 185 186 182 178 180 176 174 178 170 162 163 160 158 158 159 160 161 162 161 163 165 169 180 188 225 266 285 298 300 302 304 306 309 310 307 308 311 311 310 312 310 309 307 306 309 310 311 311 308 305 299 294 291 294 294 287 283 283 280 275 271 267 264 265
177 32 241 184 217 242 242 241 233 235 239 225 215 216 228 249 235 210 204 210 209 204 210 217 214 204 198 197 193 187 185 183 183 184 183 181 180 180 175 174 174 165 161 164 161 161 162 163 166 167 168 169 171 176 184 192 195 210 239 268 289 296 300 299 301 305 305 307 308 310 311 310 310 308 309 310 306 306 307 309 310 308 306 301 296 295 296 295 291 290 287 284 281 279 278 276 273
165 181 222 206 212 231 230 236 249 245 233 235 239 224 213 238 246 218 199 206 218 210 208 218 217 208 199 198 196 188 183 181 183 183 181 180 181 179 175 173 170 162 162 165 163 165 166 167 172 173 175 175 177 186 192 195 198 208 234 264 280 289 298 297 299 302 305 311 310 311 314 313 312 311 313 314 312 312 312 311 310 309 310 308 302 298 296 295 294 294 293 292 292 285 280 281 280
219 206 212 207 198 205 226 232 241 253 243 234 241 231 215 225 252 239 191 178 200 224 221 211 209 207 200 197 199 191 181 179 182 183 180 178 180 179 175 171 166 163 165 168 167 169 169 172 175 177 180 182 185 193 196 198 202 212 232 258 278 289 299 299 299 304 309 313 314 317 319 315 314 314 313 314 315 319 318 315 313 312 314 311 309 308 303 300 300 299 295 293 293 286 283 285 283
219 217 207 208 200 194 224 226 213 237 247 241 244 237 222 224 245 256 236 193 192 209 232 224 203 201 198 195 199 194 181 178 180 184 183 181 182 180 175 170 167 167 170 171 172 171 172 175 179 182 185 186 192 198 198 200 206 213 229 255 279 290 296 297 300 303 307 312 314 315 315 313 313 310 311 313 314 318 318 316 316 314 312 308 304 305 303 301 302 300 295 289 288 289 290 291 287
209 217 206 209 215 208 221 228 221 233 236 227 228 233 246 258 243 238 244 243 218 192 211 239 210 196 196 192 196 197 185 178 180 187 187 187 188 181 174 170 170 171 171 173 175 174 174 178 182 186 188 190 196 199 200 203 208 214 223 245 270 284 290 292 296 301 306 311 310 308 308 308 307 307 309 312 312 315 315 315 316 313 310 303 293 292 294 298 299 296 293 290 290 292 293 294 290
207 224 223 219 228 230 229 231 232 239 238 215 194 194 247 261 262 232 227 282 287 223 190 217 223 205 199 190 191 199 193 181 180 188 192 194 191 181 173 171 172 172 172 174 177 175 177 180 184 188 191 193 197 200 202 205 210 214 219 237 263 274 281 287 290 293 295 298 299 299 300 300 301 303 305 306 308 311 314 315 315 312 310 304 296 293 297 305 306 301 299 295 294 297 295 294 294
201 223 233 223 224 233 249 260 255 263 279 228 179 194 252 238 122 150 177 161 221 235 194 199 210 214 208 194 188 197 202 190 182 186 192 196 192 182 174 172 173 173 172 175 177 177 180 182 184 190 192 195 199 201 204 209 215 218 223 240 260 266 271 278 280 282 287 293 297 297 296 298 298 298 297 300 304 308 313 314 312 310 309 306 304 303 304 308 309 306 306 302 296 299 300 299 301
189 206 229 226 226 230 239 250 250 254 270 248 199 225 242 229 193 181 172 169 172 183 216 207 199 208 216 204 188 193 205 197 185 183 184 193 194 184 176 173 174 174 174 175 177 179 182 182 184 190 193 196 199 203 207 211 216 220 228 241 251 259 266 272 278 284 288 291 293 293 294 298 298 296 295 296 300 306 310 311 309 307 307 307 308 308 308 307 307 307 307 304 300 304 306 304 304
209 192 213 221 242 269 268 264 241 226 246 248 234 240 233 237 231 162 153 179 183 178 204 209 198 205 219 217 195 195 203 197 188 181 178 190 195 184 177 175 175 176 174 173 175 178 181 183 186 190 193 197 200 204 209 212 215 221 231 240 244 251 259 266 274 279 282 285 288 291 296 300 300 298 295 297 300 304 308 308 307 305 304 307 309 310 310 307 306 307 307 304 304 309 310 306 307
248 254 219 215 218 223 235 259 255 229 236 247 234 229 233 244 218 149 156 191 188 181 189 202 218 210 213 224 206 197 202 195 188 182 178 191 195 183 176 175 175 176 174 172 173 176 181 184 188 192 194 198 201 206 210 211 214 222 231 237 240 245 252 259 266 272 275 277 282 288 295 301 303 301 298 300 301 303 306 306 305 303 303 305 307 309 310 310 305 303 306 309 310 311 308 306 309
245 276 252 219 222 223 209 205 239 248 242 252 240 219 234 254 177 147 149 156 167 202 187 197 242 223 207 221 212 200 201 196 190 183 179 190 194 184 177 176 176 174 174 173 173 178 184 185 187 192 194 198 202 206 209 209 214 223 229 233 240 243 245 252 258 265 269 274 281 289 294 297 301 302 301 301 301 302 305 304 303 303 302 302 302 305 309 309 302 298 301 308 311 309 305 304 307
213 240 231 211 212 240 237 201 217 244 248 256 262 248 153 65 95 116 116 115 117 266 200 195 235 233 210 212 212 204 199 196 192 183 180 190 191 183 177 176 175 172 174 178 178 182 186 185 186 192 195 199 203 205 207 211 215 221 227 231 239 241 241 250 256 262 269 274 279 282 284 289 294 298 299 299 301 302 302 301 303 302 302 302 299 301 307 306 300 297 297 302 306 306 305 305 306
194 209 225 227 219 220 233 222 215 232 252 255 261 261 142 101 93 103 110 118 125 127 218 206 204 231 223 204 206 207 198 197 193 182 183 193 191 181 176 176 174 172 178 183 182 184 186 185 186 191 197 202 205 205 205 211 215 218 227 233 238 241 241 248 255 263 268 270 273 277 279 282 284 290 296 299 301 301 299 298 299 298 299 300 296 296 300 301 299 295 294 299 304 304 305 305 304